Location: Unspecified
(37.6100°N, 2.7800°W)
Time: 06:27:53
(UTC+00:00)

ISS - Visible Passes

Search period start: 27 May 2019 00:00
Search period end: 06 June 2019 00:00
Orbit: 408 x 418 km, 51.6° (Epoch: 27 May)

Date Brightness Start Highest point End Pass type
(mag) Time Alt. Az. Time Alt. Az. Time Alt. Az.
27 May -0.8 23:00:56 10° NNW 23:02:07 17° NNW 23:02:07 17° NNW visible
28 May -1.2 22:11:48 10° NNW 22:14:05 17° NNE 22:14:15 17° NNE visible
29 May -0.9 21:22:50 10° N 21:24:21 12° NNE 21:25:53 10° NE visible
29 May -0.9 22:58:18 10° NW 22:59:13 17° NW 22:59:13 17° NW visible
30 May -2.0 22:08:58 10° NNW 22:11:23 30° N 22:11:23 30° N visible
31 May -1.7 21:19:45 10° NNW 21:22:24 21° NNE 21:23:35 18° ENE visible
31 May -0.7 22:56:00 10° WNW 22:56:24 13° WNW 22:56:24 13° WNW visible
01 Jun -1.2 20:30:37 10° NNW 20:32:42 15° NNE 20:34:46 10° ENE visible
01 Jun -2.4 22:06:25 10° NW 22:08:37 38° NW 22:08:37 38° NW visible
02 Jun -3.2 21:16:58 10° NW 21:20:13 48° NE 21:20:53 41° ENE visible
03 Jun -2.3 20:27:38 10° NNW 20:30:36 29° NNE 20:33:10 12° E visible
03 Jun -1.7 22:04:18 10° WNW 22:05:59 22° W 22:05:59 22° W visible
04 Jun -3.5 21:14:30 10° WNW 21:17:47 55° SW 21:18:19 48° S visible
05 Jun -3.7 20:24:55 10° NW 20:28:15 75° NE 20:30:42 17° ESE visible
